Weather History for Cody, WY

Change the Weather History Date:

Saturday, March 9, 2013

  Actual Average Record
Temperature  
Mean Temperature 33 °F -  
Max Temperature 42 °F 49 °F 72 °F (1972)
Min Temperature 23 °F 28 °F -19 °F (1932)
Degree Days  
Heating Degree Days 32    
Moisture  
Dew Point 17 °F    
Average Humidity 55    
Maximum Humidity 86    
Minimum Humidity 29    
Precipitation  
Precipitation 0.00 in - - ()
Sea Level Pressure  
Sea Level Pressure 30.01 in    
Wind  
Wind Speed 11 mph (North)    
Max Wind Speed 25 mph    
Max Gust Speed 34 mph    
Visibility 10 miles    
Events      
Averages and records for this station are not official NWS values.
T = Trace of Precipitation, MM = Missing Value Source: NWS Daily Summary

Daily Weather History Graph

Daily Weather History Graph

Search for Another Location

Airport:

Trip Planner

Search our weather history database for the weather conditions in past years. The results will help you decide how hot, cold, wet, or windy it might be!

Date:

Astronomy

Mar. 09, 2013 Rise Set
Actual Time 6:38 AM MST 6:14 PM MST
Civil Twilight 6:09 AM MST 6:43 PM MST
Nautical Twilight 5:36 AM MST 7:17 PM MST
Astronomical Twilight 5:02 AM MST 7:51 PM MST
Moon 5:08 AM MST (3/9) 4:17 PM MST (3/9)
Length of Visible Light 12h 34m
Length of Day
11h 36m
Waning Crescent, 5% of the Moon is Illuminated
Mar 9
Waning Crescent
Mar 11
New
Mar 19
First Quarter
Mar 27
Full
Apr 2
Last Quarter

Hourly Weather History & Observations

Time (MST) Temp. Windchill Dew Point Humidity Pressure Visibility Wind Dir Wind Speed Gust Speed Precip Events Conditions
12:15 AM 33.8 °F 25.8 °F 26.6 °F 75% 29.84 in 10.0 mi North 10.4 mph 16.1 mph N/A   Mostly Cloudy
12:35 AM 33.8 °F 26.4 °F 24.8 °F 70% 29.84 in 10.0 mi North 9.2 mph - N/A   Partly Cloudy
12:55 AM 32.0 °F 24.2 °F 24.8 °F 75% 29.85 in 10.0 mi North 9.2 mph - N/A   Partly Cloudy
1:15 AM 30.2 °F 23.4 °F 24.8 °F 80% 29.85 in 10.0 mi North 6.9 mph - N/A   Partly Cloudy
1:35 AM 30.2 °F 25.4 °F 24.8 °F 80% 29.86 in 10.0 mi NNW 4.6 mph - N/A   Partly Cloudy
1:55 AM 30.2 °F 25.4 °F 24.8 °F 80% 29.86 in 10.0 mi NNE 4.6 mph - N/A   Clear
2:15 AM 28.4 °F 24.6 °F 24.8 °F 86% 29.86 in 10.0 mi NE 3.5 mph - N/A   Clear
2:35 AM 28.4 °F 21.2 °F 23.0 °F 80% 29.86 in 10.0 mi NNE 6.9 mph - N/A   Clear
2:55 AM 28.4 °F - 24.8 °F 86% 29.86 in 10.0 mi Calm Calm - N/A   Mostly Cloudy
3:15 AM 30.2 °F 25.4 °F 24.8 °F 80% 29.86 in 10.0 mi NNE 4.6 mph - N/A   Overcast
3:35 AM 28.4 °F 24.6 °F 24.8 °F 86% 29.86 in 10.0 mi NNE 3.5 mph - N/A   Overcast
3:55 AM 28.4 °F 24.6 °F 24.8 °F 86% 29.87 in 10.0 mi NNW 3.5 mph - N/A   Overcast
4:15 AM 28.4 °F 22.2 °F 24.8 °F 86% 29.87 in 10.0 mi North 5.8 mph - N/A   Overcast
4:35 AM 30.2 °F 24.3 °F 24.8 °F 80% 29.88 in 10.0 mi North 5.8 mph - N/A   Overcast
4:55 AM 30.2 °F 22.6 °F 26.6 °F 86% 29.88 in 10.0 mi North 8.1 mph - N/A   Overcast
5:15 AM 32.0 °F 24.8 °F 26.6 °F 80% 29.89 in 10.0 mi North 8.1 mph - N/A   Overcast
5:35 AM 30.2 °F 23.4 °F 24.8 °F 80% 29.89 in 10.0 mi North 6.9 mph - N/A   Mostly Cloudy
5:55 AM 30.2 °F 21.9 °F 24.8 °F 80% 29.89 in 10.0 mi North 9.2 mph - N/A   Mostly Cloudy
6:15 AM 30.2 °F 19.8 °F 23.0 °F 75% 29.90 in 10.0 mi North 13.8 mph - N/A   Overcast
6:35 AM 28.4 °F 19.1 °F 21.2 °F 74% 29.91 in 10.0 mi North 10.4 mph - N/A   Mostly Cloudy
6:55 AM 28.4 °F 19.1 °F 21.2 °F 74% 29.93 in 10.0 mi North 10.4 mph - N/A   Mostly Cloudy
7:15 AM 28.4 °F 19.1 °F 21.2 °F 74% 29.95 in 10.0 mi North 10.4 mph 16.1 mph N/A   Mostly Cloudy
7:35 AM 28.4 °F 20.4 °F 19.4 °F 69% 29.95 in 10.0 mi North 8.1 mph - N/A   Partly Cloudy
8:15 AM 30.2 °F 21.9 °F 19.4 °F 64% 29.97 in 10.0 mi North 9.2 mph 20.7 mph N/A   Clear
8:35 AM 30.2 °F 22.6 °F 19.4 °F 64% 29.98 in 10.0 mi North 8.1 mph - N/A   Partly Cloudy
8:55 AM 33.8 °F 23.2 °F 17.6 °F 52% 29.99 in 10.0 mi North 17.3 mph 20.7 mph N/A   Clear
9:15 AM 33.8 °F 22.8 °F 19.4 °F 56% 29.99 in 10.0 mi North 18.4 mph 27.6 mph N/A   Clear
9:35 AM 33.8 °F 22.5 °F 17.6 °F 52% 29.99 in 10.0 mi North 19.6 mph 28.8 mph N/A   Clear
9:55 AM 35.6 °F 23.7 °F 15.8 °F 44% 30.00 in 10.0 mi North 24.2 mph 28.8 mph N/A   Clear
10:15 AM 37.4 °F 25.9 °F 15.8 °F 41% 30.00 in 10.0 mi North 25.3 mph 29.9 mph N/A   Partly Cloudy
10:35 AM 37.4 °F 26.1 °F 15.8 °F 41% 30.00 in 10.0 mi North 24.2 mph 34.5 mph N/A   Mostly Cloudy
10:55 AM 35.6 °F 23.7 °F 15.8 °F 44% 30.01 in 10.0 mi North 24.2 mph 31.1 mph N/A   Overcast
11:15 AM 37.4 °F 26.6 °F 15.8 °F 41% 30.01 in 10.0 mi North 21.9 mph 28.8 mph N/A   Overcast
11:35 AM 35.6 °F 25.5 °F 14.0 °F 41% 30.02 in 10.0 mi North 17.3 mph 29.9 mph N/A   Overcast
11:55 AM 37.4 °F 27.2 °F 14.0 °F 38% 30.03 in 10.0 mi North 19.6 mph 28.8 mph N/A   Mostly Cloudy
12:15 PM 37.4 °F 27.8 °F 14.0 °F 38% 30.03 in 10.0 mi North 17.3 mph 28.8 mph N/A   Mostly Cloudy
12:55 PM 39.2 °F 29.3 °F 15.8 °F 39% 30.03 in 10.0 mi North 20.7 mph 27.6 mph N/A   Mostly Cloudy
1:15 PM 39.2 °F 30.2 °F 15.8 °F 39% 30.03 in 10.0 mi North 17.3 mph 28.8 mph N/A   Partly Cloudy
1:35 PM 39.2 °F 29.8 °F 14.0 °F 36% 30.02 in 10.0 mi North 18.4 mph 26.5 mph N/A   Clear
1:55 PM 41.0 °F 32.2 °F 14.0 °F 33% 30.02 in 10.0 mi North 18.4 mph 23.0 mph N/A   Clear
2:15 PM 39.2 °F 29.3 °F 14.0 °F 36% 30.02 in 10.0 mi North 20.7 mph 25.3 mph N/A   Clear
2:35 PM 39.2 °F 29.8 °F 14.0 °F 36% 30.03 in 10.0 mi North 18.4 mph 24.2 mph N/A   Partly Cloudy
2:55 PM 41.0 °F 31.6 °F 12.2 °F 31% 30.03 in 10.0 mi North 20.7 mph 27.6 mph N/A   Clear
3:15 PM 42.8 °F 34.5 °F 12.2 °F 29% 30.03 in 10.0 mi North 18.4 mph 25.3 mph N/A   Clear
3:35 PM 41.0 °F 31.1 °F 12.2 °F 31% 30.04 in 10.0 mi North 23.0 mph 27.6 mph N/A   Clear
3:55 PM 41.0 °F 31.4 °F 12.2 °F 31% 30.04 in 10.0 mi North 21.9 mph 29.9 mph N/A   Clear
4:15 PM 41.0 °F 31.6 °F 12.2 °F 31% 30.05 in 10.0 mi North 20.7 mph 27.6 mph N/A   Clear
4:35 PM 41.0 °F 32.5 °F 12.2 °F 31% 30.05 in 10.0 mi North 17.3 mph 28.8 mph N/A   Clear
5:15 PM 39.2 °F 29.6 °F 12.2 °F 33% 30.07 in 10.0 mi North 19.6 mph 28.8 mph N/A   Clear
5:35 PM 39.2 °F 30.2 °F 12.2 °F 33% 30.08 in 10.0 mi North 17.3 mph - N/A   Clear
5:55 PM 37.4 °F 27.8 °F 12.2 °F 36% 30.09 in 10.0 mi North 17.3 mph 25.3 mph N/A   Clear
6:15 PM 37.4 °F 28.9 °F 12.2 °F 36% 30.10 in 10.0 mi North 13.8 mph 21.9 mph N/A   Clear
6:35 PM 35.6 °F 26.6 °F 12.2 °F 38% 30.11 in 10.0 mi North 13.8 mph 19.6 mph N/A   Clear
6:55 PM 35.6 °F 26.6 °F 12.2 °F 38% 30.12 in 10.0 mi North 13.8 mph 19.6 mph N/A   Clear
7:15 PM 35.6 °F 27.1 °F 12.2 °F 38% 30.13 in 10.0 mi North 12.7 mph 19.6 mph N/A   Clear
7:35 PM 33.8 °F 27.7 °F 12.2 °F 41% 30.14 in 10.0 mi West 6.9 mph - N/A   Clear
7:55 PM 33.8 °F 25.3 °F 14.0 °F 44% 30.15 in 10.0 mi West 11.5 mph - N/A   Clear
8:15 PM 33.8 °F 26.4 °F 12.2 °F 41% 30.16 in 10.0 mi NW 9.2 mph - N/A   Clear
8:35 PM 32.0 °F 24.8 °F 12.2 °F 44% 30.17 in 10.0 mi WNW 8.1 mph - N/A   Clear
8:55 PM 32.0 °F 24.2 °F 12.2 °F 44% 30.17 in 10.0 mi NNW 9.2 mph - N/A   Clear
9:15 PM 30.2 °F 21.9 °F 12.2 °F 47% 30.18 in 10.0 mi NNW 9.2 mph - N/A   Clear
9:35 PM 30.2 °F 22.6 °F 12.2 °F 47% 30.18 in 10.0 mi North 8.1 mph - N/A   Clear
9:55 PM 30.2 °F 26.7 °F 12.2 °F 47% 30.18 in 10.0 mi NNW 3.5 mph - N/A   Clear
10:15 PM 28.4 °F 23.3 °F 14.0 °F 55% 30.18 in 10.0 mi NNW 4.6 mph - N/A   Clear
10:35 PM 28.4 °F - 14.0 °F 55% 30.17 in 10.0 mi Calm Calm - N/A   Clear
10:55 PM 24.8 °F 20.5 °F 12.2 °F 59% 30.17 in 10.0 mi South 3.5 mph - N/A   Clear
11:15 PM 24.8 °F - 12.2 °F 59% 30.18 in 10.0 mi Calm Calm - N/A   Clear
11:35 PM 24.8 °F 20.5 °F 14.0 °F 64% 30.17 in 10.0 mi SW 3.5 mph - N/A   Clear
11:55 PM 23.0 °F 17.0 °F 12.2 °F 63% 30.17 in 10.0 mi South 4.6 mph - N/A   Clear